CST,Max TemperatureF,Mean TemperatureF,Min TemperatureF,Max Dew PointF,MeanDew PointF,Min DewpointF,Max Humidity, Mean Humidity, Min Humidity, Max Sea Level PressureIn, Mean Sea Level PressureIn, Min Sea Level PressureIn, Max VisibilityMiles, Mean VisibilityMiles, Min VisibilityMiles, Max Wind SpeedMPH, Mean Wind SpeedMPH, Max Gust SpeedMPH,PrecipitationIn, CloudCover, Events, WindDirDegrees
2012-12-1,59,44,28,52,38,27,100,88,75,30.14,30.05,29.89,10,4,0,22,9,29,0.00,4,Fog,136
2012-12-2,63,53,42,54,49,41,100,83,65,30.06,29.98,29.87,10,6,0,21,7,28,0.01,4,Fog,253
2012-12-3,70,60,49,61,56,48,100,84,68,30.02,29.88,29.76,10,6,0,26,14,35,0.02,6,Fog-Rain,184
2012-12-4,57,44,30,46,36,27,89,65,41,30.31,30.12,29.94,10,10,10,21,9,26,0.00,1,,298
2012-12-5,42,34,25,27,23,17,85,67,49,30.45,30.36,30.22,10,10,10,13,7,15,0.00,0,,75
2012-12-6,45,38,31,40,34,27,89,77,65,30.22,30.03,29.92,10,10,9,16,9,21,T,5,,169
2012-12-7,44,41,38,41,38,35,100,88,76,29.97,29.93,29.89,10,7,2,12,6,16,0.07,8,Rain,22
2012-12-8,42,38,34,36,33,30,100,85,70,30.11,30.00,29.88,10,8,3,17,10,21,0.11,8,Rain-Snow,21
2012-12-9,40,38,35,40,35,32,100,93,85,30.08,29.86,29.73,10,6,1,21,10,26,0.09,8,Rain,94
2012-12-10,37,33,28,34,28,23,100,90,75,29.98,29.83,29.73,10,7,2,24,15,30,T,8,Rain,288
2012-12-11,34,27,19,27,21,17,100,78,56,30.18,30.05,29.95,10,9,6,21,9,25,0.00,3,,220
2012-12-12,45,33,21,29,25,19,92,71,49,30.31,30.26,30.18,10,10,10,18,9,23,0.00,0,,176
2012-12-13,48,37,26,30,26,23,92,66,39,30.29,30.21,30.12,10,10,9,23,10,30,0.00,0,,180
2012-12-14,47,35,23,34,29,21,96,75,53,30.22,30.15,30.03,10,10,7,12,5,13,0.00,1,,138
2012-12-15,49,44,39,47,42,32,100,85,70,30.01,29.70,29.56,10,6,2,23,13,31,0.36,8,Rain,166
2012-12-16,49,43,37,46,39,34,96,91,85,29.75,29.66,29.59,10,7,4,18,11,22,0.01,8,Rain,253
2012-12-17,37,34,30,34,31,28,92,87,82,29.76,29.73,29.67,8,6,5,9,5,13,0.00,8,,315
2012-12-18,40,35,30,37,32,26,92,89,85,29.85,29.71,29.58,8,5,4,21,10,26,T,8,Rain,212
2012-12-19,41,36,31,36,32,28,100,88,76,30.07,29.98,29.77,7,5,3,21,8,25,0.05,6,Rain,44
2012-12-20,50,41,31,48,36,28,100,96,92,29.72,29.30,29.01,10,4,1,38,22,46,0.74,8,Rain-Snow,331
2012-12-21,31,24,16,27,18,12,92,83,73,30.23,29.94,29.53,10,10,10,37,21,45,T,3,,307
2012-12-22,31,22,12,22,16,9,92,80,68,30.26,30.15,29.98,10,10,6,13,5,15,0.00,1,,203
2012-12-23,32,23,13,28,22,12,96,87,78,30.05,30.00,29.95,10,8,5,13,5,16,0.00,4,,10
2012-12-24,31,28,25,27,25,21,92,87,81,30.13,29.95,29.87,10,9,7,15,9,18,0.00,8,,3
2012-12-25,29,26,22,22,20,18,92,83,74,30.33,30.26,30.15,10,10,10,15,10,18,0.00,8,,6
2012-12-26,32,29,25,25,22,20,81,72,63,30.19,30.08,29.98,10,10,3,24,16,33,T,8,Snow,14
2012-12-27,31,28,25,26,23,19,88,82,75,30.22,30.16,30.11,10,10,8,17,7,21,0.00,8,,7
2012-12-28,31,30,29,30,28,25,100,93,85,30.13,30.00,29.88,9,4,1,14,5,15,T,8,Snow,142
2012-12-29,30,23,16,30,24,13,100,90,80,30.26,29.98,29.86,10,5,1,23,14,28,T,8,Snow,295
2012-12-30,32,22,12,27,18,9,92,81,69,30.38,30.27,30.10,10,7,4,18,8,23,0.00,0,,214
2012-12-31,33,26,19,26,21,12,91,80,68,30.17,30.08,30.04,10,9,6,17,11,23,0.00,5,,272